| time (UTC) | temp C | wind direction | speed KPH | gust KPH | rain 1hr cm | rain 24hr cm | rain mn cm | humidity % | barometer mb |
| 20260905214531 | 20 | 234 | 1.6 | 4.8 | 0.00 | 0.08 | 0.00 | 65 | 1017.0 |
| 20260905213011 | 19 | 204 | 1.6 | 6.4 | 0.00 | 0.08 | 0.00 | 64 | 1017.2 |
| 20260905211516 | 20 | 312 | 0.0 | 3.2 | 0.00 | 0.08 | 0.00 | 65 | 1017.3 |
| 20260905210026 | 18 | 124 | 0.0 | 4.8 | 0.00 | 0.08 | 0.00 | 70 | 1017.5 |
| 20260905204526 | 18 | 313 | 0.0 | 4.8 | 0.00 | 0.08 | 0.00 | 69 | 1017.6 |
| 20260905203032 | 17 | 232 | 3.2 | 4.8 | 0.00 | 0.13 | 0.00 | 72 | 1017.6 |
| 20260905201516 | 17 | 350 | 1.6 | 3.2 | 0.00 | 0.18 | 0.00 | 74 | 1017.7 |
| 20260905200026 | 17 | 211 | 1.6 | 4.8 | 0.00 | 0.18 | 0.00 | 76 | 1017.7 |
| 20260905194527 | 17 | 103 | 0.0 | 6.4 | 0.00 | 0.18 | 0.00 | 76 | 1017.9 |
| 20260905193034 | 16 | 236 | 0.0 | 1.6 | 0.00 | 0.18 | 0.00 | 80 | 1018.0 |
| 20260905191511 | 16 | 235 | 3.2 | 8.0 | 0.00 | 0.18 | 0.00 | 81 | 1018.1 |
| 20260905190030 | 16 | 236 | 3.2 | 6.4 | 0.00 | 0.18 | 0.00 | 81 | 1018.1 |
| 20260905184506 | 16 | 328 | 0.0 | 4.8 | 0.00 | 0.18 | 0.00 | 80 | 1018.1 |
| 20260905183012 | 15 | 352 | 1.6 | 4.8 | 0.00 | 0.18 | 0.00 | 81 | 1018.3 |
| 20260905181513 | 15 | 199 | 0.0 | 3.2 | 0.00 | 0.18 | 0.00 | 85 | 1018.3 |
| 20260905180022 | 15 | 344 | 0.0 | 4.8 | 0.00 | 0.18 | 0.00 | 85 | 1018.3 |
| 20260905174527 | 15 | 68 | 0.0 | 4.8 | 0.00 | 0.23 | 0.00 | 86 | 1018.2 |
| 20260905173006 | 15 | 268 | 0.0 | 3.2 | 0.00 | 0.23 | 0.00 | 87 | 1018.2 |
| 20260905171511 | 14 | 336 | 1.6 | 4.8 | 0.00 | 0.23 | 0.00 | 87 | 1018.1 |
| 20260905170016 | 14 | 33 | 0.0 | 4.8 | 0.00 | 0.23 | 0.00 | 88 | 1018.1 |
| 20260905164521 | 14 | 24 | 0.0 | 0.0 | 0.00 | 0.23 | 0.00 | 89 | 1018.1 |
| 20260905163003 | 14 | 352 | 0.0 | 3.2 | 0.00 | 0.23 | 0.00 | 89 | 1018.2 |
| 20260905161516 | 13 | 323 | 0.0 | 3.2 | 0.00 | 0.23 | 0.00 | 91 | 1018.2 |
| 20260905160013 | 13 | 330 | 0.0 | 3.2 | 0.00 | 0.23 | 0.00 | 91 | 1018.3 |
| 20260905154518 | 13 | 351 | 0.0 | 4.8 | 0.00 | 0.23 | 0.00 | 92 | 1018.3 |
| 20260905153025 | 13 | 352 | 0.0 | 3.2 | 0.00 | 0.23 | 0.00 | 93 | 1018.2 |
| 20260905151504 | 13 | 255 | 0.0 | 0.0 | 0.00 | 0.23 | 0.00 | 94 | 1018.2 |
| 20260905150013 | 13 | 245 | 0.0 | 0.0 | 0.00 | 0.23 | 0.00 | 95 | 1018.2 |
| 20260905144524 | 12 | 245 | 0.0 | 0.0 | 0.00 | 0.28 | 0.00 | 95 | 1018.2 |
| 20260905143023 | 12 | 245 | 0.0 | 0.0 | 0.00 | 0.30 | 0.00 | 95 | 1018.1 |
| 20260905141528 | 12 | 245 | 0.0 | 0.0 | 0.00 | 0.33 | 0.00 | 95 | 1018.1 |
| 20260905140018 | 12 | 245 | 0.0 | 0.0 | 0.00 | 0.33 | 0.00 | 95 | 1018.0 |
| 20260905134516 | 12 | 245 | 0.0 | 0.0 | 0.00 | 0.33 | 0.00 | 95 | 1018.0 |
| 20260905133026 | 12 | 245 | 0.0 | 0.0 | 0.00 | 0.41 | 0.00 | 95 | 1017.9 |
| 20260905131529 | 12 | 245 | 0.0 | 0.0 | 0.00 | 0.41 | 0.00 | 95 | 1017.9 |
| 20260905130028 | 12 | 245 | 0.0 | 0.0 | 0.00 | 0.41 | 0.00 | 95 | 1017.8 |
| 20260905124514 | 12 | 245 | 0.0 | 0.0 | 0.00 | 0.41 | 0.00 | 95 | 1017.7 |
| 20260905123020 | 12 | 245 | 0.0 | 0.0 | 0.00 | 0.41 | 0.00 | 95 | 1017.7 |
| 20260905121523 | 12 | 245 | 0.0 | 0.0 | 0.00 | 0.41 | 0.00 | 95 | 1017.6 |
| 20260905120042 | 12 | 245 | 0.0 | 0.0 | 0.00 | 0.41 | 0.00 | 95 | 1017.4 |
| 20260905114512 | 12 | 245 | 0.0 | 0.0 | 0.00 | 0.41 | 0.00 | 95 | 1017.5 |
| 20260905113016 | 12 | 245 | 0.0 | 0.0 | 0.00 | 0.43 | 0.00 | 95 | 1017.4 |
| 20260905111537 | 12 | 245 | 0.0 | 0.0 | 0.00 | 0.43 | 0.00 | 95 | 1017.3 |
| 20260905110030 | 13 | 245 | 0.0 | 0.0 | 0.00 | 0.46 | 0.00 | 95 | 1017.4 |
| 20260905104530 | 12 | 245 | 0.0 | 0.0 | 0.00 | 0.51 | 0.00 | 95 | 1017.4 |
| 20260905103022 | 12 | 245 | 0.0 | 0.0 | 0.00 | 0.56 | 0.00 | 95 | 1017.4 |
| 20260905101522 | 12 | 245 | 0.0 | 0.0 | 0.00 | 0.58 | 0.00 | 95 | 1017.4 |
| 20260905100024 | 12 | 245 | 0.0 | 0.0 | 0.00 | 0.61 | 0.00 | 95 | 1017.5 |
| 20260905094529 | 12 | 245 | 0.0 | 0.0 | 0.00 | 0.64 | 0.00 | 95 | 1017.5 |
| 20260905093031 | 12 | 245 | 0.0 | 0.0 | 0.00 | 0.69 | 0.00 | 95 | 1017.4 |
| 20260905091516 | 12 | 245 | 0.0 | 0.0 | 0.00 | 0.71 | 0.00 | 95 | 1017.3 |
| 20260905090006 | 12 | 245 | 0.0 | 0.0 | 0.00 | 0.71 | 0.00 | 95 | 1017.2 |
| 20260905084504 | 12 | 245 | 0.0 | 0.0 | 0.00 | 0.71 | 0.00 | 95 | 1017.2 |
| 20260905083009 | 12 | 245 | 0.0 | 0.0 | 0.00 | 0.71 | 0.00 | 95 | 1017.1 |
| 20260905081516 | 12 | 242 | 0.0 | 0.0 | 0.00 | 0.71 | 0.00 | 95 | 1017.1 |
| 20260905080028 | 12 | 244 | 0.0 | 0.0 | 0.00 | 0.71 | 0.00 | 95 | 1017.1 |
| 20260905074504 | 12 | 260 | 0.0 | 0.0 | 0.00 | 0.71 | 0.00 | 95 | 1017.0 |
| 20260905073004 | 12 | 239 | 0.0 | 0.0 | 0.00 | 0.71 | 0.00 | 95 | 1016.9 |
| 20260905071513 | 12 | 242 | 0.0 | 1.6 | 0.00 | 0.71 | 0.00 | 95 | 1016.8 |
| 20260905070036 | 12 | 245 | 0.0 | 0.0 | 0.00 | 0.71 | 0.00 | 95 | 1016.7 |
| 20260905064537 | 12 | 257 | 0.0 | 0.0 | 0.00 | 0.71 | 0.71 | 95 | 1016.6 |
| 20260905063008 | 12 | 257 | 0.0 | 0.0 | 0.00 | 0.71 | 0.71 | 95 | 1016.5 |
| 20260905061508 | 12 | 242 | 0.0 | 0.0 | 0.00 | 0.71 | 0.71 | 95 | 1016.5 |
| 20260905060020 | 12 | 246 | 0.0 | 0.0 | 0.00 | 0.71 | 0.71 | 95 | 1016.5 |
| 20260905054534 | 12 | 242 | 0.0 | 0.0 | 0.00 | 0.71 | 0.71 | 95 | 1016.4 |
| 20260905053006 | 12 | 248 | 0.0 | 0.0 | 0.00 | 0.71 | 0.71 | 95 | 1016.4 |
| 20260905051516 | 12 | 240 | 0.0 | 0.0 | 0.00 | 0.71 | 0.71 | 95 | 1016.4 |
| 20260905050012 | 12 | 240 | 0.0 | 3.2 | 0.00 | 0.71 | 0.71 | 95 | 1016.4 |
| 20260905044518 | 12 | 230 | 0.0 | 4.8 | 0.00 | 0.71 | 0.71 | 95 | 1016.4 |
| 20260905043033 | 12 | 238 | 1.6 | 4.8 | 0.00 | 0.71 | 0.71 | 94 | 1016.3 |
| 20260905041511 | 12 | 236 | 0.0 | 0.0 | 0.00 | 0.71 | 0.71 | 94 | 1016.2 |
| 20260905040021 | 12 | 217 | 0.0 | 0.0 | 0.00 | 0.71 | 0.71 | 93 | 1016.0 |
| 20260905034527 | 13 | 217 | 0.0 | 0.0 | 0.00 | 0.71 | 0.71 | 93 | 1015.8 |
| 20260905033027 | 13 | 217 | 0.0 | 0.0 | 0.00 | 0.71 | 0.71 | 93 | 1015.8 |
| 20260905031532 | 13 | 191 | 0.0 | 0.0 | 0.00 | 0.71 | 0.71 | 93 | 1015.6 |
| 20260905030009 | 13 | 313 | 0.0 | 0.0 | 0.00 | 0.74 | 0.71 | 92 | 1015.5 |
| 20260905024512 | 13 | 245 | 0.0 | 3.2 | 0.00 | 0.74 | 0.71 | 92 | 1015.3 |
| 20260905023018 | 13 | 223 | 0.0 | 0.0 | 0.00 | 0.81 | 0.71 | 92 | 1015.3 |
| 20260905021536 | 14 | 224 | 0.0 | 3.2 | 0.00 | 0.89 | 0.71 | 90 | 1015.2 |
| 20260905020029 | 15 | 242 | 0.0 | 0.0 | 0.00 | 0.94 | 0.71 | 89 | 1015.1 |
| 20260905014516 | 15 | 242 | 0.0 | 0.0 | 0.00 | 1.02 | 0.71 | 87 | 1015.1 |
| 20260905013017 | 15 | 242 | 0.0 | 0.0 | 0.00 | 1.04 | 0.71 | 86 | 1015.1 |
| 20260905011521 | 15 | 313 | 0.0 | 3.2 | 0.00 | 1.04 | 0.71 | 82 | 1015.1 |
| 20260905010031 | 15 | 338 | 0.0 | 1.6 | 0.00 | 1.04 | 0.71 | 83 | 1014.9 |
| 20260905004510 | 16 | 298 | 0.0 | 3.2 | 0.00 | 1.07 | 0.71 | 81 | 1014.9 |
| 20260905003020 | 16 | 360 | 0.0 | 4.8 | 0.00 | 1.09 | 0.71 | 80 | 1014.8 |
| 20260905001521 | 16 | 9 | 1.6 | 4.8 | 0.00 | 1.09 | 0.71 | 82 | 1014.7 |
| 20260905000030 | 16 | 322 | 1.6 | 4.8 | 0.00 | 1.12 | 0.71 | 84 | 1014.5 |
| 20260904234531 | 16 | 304 | 0.0 | 6.4 | 0.00 | 1.14 | 0.71 | 83 | 1014.6 |
| 20260904233014 | 16 | 333 | 1.6 | 9.7 | 0.03 | 1.14 | 0.71 | 83 | 1014.4 |
| 20260904231518 | 16 | 340 | 4.8 | 9.7 | 0.03 | 1.14 | 0.71 | 84 | 1014.3 |
| 20260904230026 | 15 | 288 | 0.0 | 6.4 | 0.03 | 1.14 | 0.71 | 85 | 1014.3 |
| 20260904224528 | 15 | 273 | 0.0 | 4.8 | 0.08 | 1.14 | 0.71 | 89 | 1014.4 |
| 20260904223038 | 14 | 277 | 0.0 | 0.0 | 0.05 | 1.12 | 0.69 | 90 | 1014.4 |
| 20260904221533 | 14 | 229 | 0.0 | 3.2 | 0.05 | 1.12 | 0.69 | 91 | 1014.3 |
| 20260904220009 | 14 | 237 | 3.2 | 4.8 | 0.05 | 1.14 | 0.69 | 90 | 1014.3 |